Home > Weather > Pokhara > Past weeks

Flag for Nepal Weather for the Past 2 Weeks in Pokhara, Nepal

Now
57 °F

Fog.


Feels Like: 56 °F
Forecast: 44 / 65 °F
Wind: 6 mph from Southwest

Location: Kathmandu Airport

Current Time: Feb 10, 2016 at 6:58:42 PM

Latest Report: Feb 10, 2016 at 6:35 PM


Visibility: 3 mi

Pressure: 29.95 "Hg (27.08 "Hg at 847m altitude)

Humidity: 72%

Dew point: 48 °F

Location of PokharaLocation

Historic Weather in Pokhara — Graph

°F

Pokhara Temperature Yesterday

Maximum temperature yesterday: 64 °F (at 1:05 PM)
Minimum temperature yesterday: 43 °F (at 6:35 AM)
Average temperature yesterday: 53 °F

High & Low Weather Summary for the Past Weeks

 TemperatureHumidityPressure
High72 °F (Feb 7, 2:05 PM)100% (Jan 30, 8:05 AM)30.24 "Hg (Jan 30, 8:05 AM)
Low37 °F (Feb 3, 7:05 AM)26% (Feb 1, 1:05 PM)29.95 "Hg (Jan 27, 2:35 PM)
Average52 °F73%30.07 "Hg
* Reported Jan 26 5:05 PM — Feb 10 5:35 PM, Pokhara, Weather by CustomWeather, © 2016

Note: Actual official high and low records may vary slightly from our data, if they occured in-between our weather recording intervals... More about our weather records

Advertising

Pokhara Weather History for the Previous 24 Hours

 ConditionsComfort  
Time TempWeatherWind HumidityBarometerVisibility
5:35 PM
Wed, Feb 10
59 °FHaze.7 mph68%29.95 "Hg2 mi
5:05 PM61 °FHaze.9 mph63%29.95 "Hg2 mi
4:35 PM63 °FRain. Passing clouds.9 mph59%29.95 "Hg5 mi
4:05 PM64 °FPassing clouds.7 mph52%29.95 "Hg5 mi
3:35 PM66 °FPassing clouds.7 mph46%29.95 "Hg5 mi
3:05 PM66 °FPassing clouds.8 mph46%29.95 "Hg5 mi
2:35 PM66 °FPassing clouds.6 mph46%29.98 "Hg5 mi
2:05 PM66 °FPassing clouds.7 mph46%29.98 "Hg5 mi
1:35 PM66 °FPassing clouds.6 mph46%29.98 "Hg4 mi
1:05 PM66 °FPassing clouds.6 mph43%30.01 "Hg4 mi
12:35 PM66 °FPassing clouds.5 mph43%30.04 "Hg4 mi
12:05 PM64 °FHaze.3 mph49%30.04 "Hg3 mi
11:35 AM64 °FHaze.3 mph49%30.07 "Hg3 mi
11:05 AM61 °FPassing clouds.3 mph59%30.07 "Hg2 mi
10:35 AM59 °FHaze.2 mph63%30.07 "Hg2 mi
10:05 AM55 °FFog.No wind72%30.07 "Hg1 mi
9:35 AM52 °FFog.2 mph82%30.09 "Hg1 mi
9:05 AM48 °FFog.2 mph100%30.07 "Hg1 mi
8:35 AM43 °FFog.3 mph100%30.07 "Hg1 mi
8:05 AM43 °FFog.2 mph100%30.07 "Hg1 mi
7:35 AM41 °FFog.2 mph100%30.04 "Hg1 mi
7:05 AM41 °FFog.3 mph100%30.04 "Hg1 mi
6:35 AM41 °FFog.5 mph100%30.04 "Hg1 mi
6:05 AM43 °FFog.5 mph93%30.04 "Hg1 mi
4:35 AM43 °FFog.2 mph100%30.01 "Hg1 mi
3:35 AM45 °FFog.3 mph93%30.01 "Hg1 mi
2:35 AM45 °FFog.2 mph93%30.01 "Hg2 mi
1:35 AM46 °FFog.No wind93%30.04 "Hg2 mi
12:35 AM46 °FFog.5 mph93%30.04 "Hg2 mi
12:05 AM48 °FFog.No wind94%30.04 "Hg2 mi
11:35 PM
Tue, Feb 9
48 °FFog.2 mph87%30.04 "Hg2 mi
11:05 PM48 °FFog.3 mph87%30.04 "Hg2 mi
10:35 PM50 °FFog.5 mph88%30.04 "Hg2 mi
9:35 PM52 °FFog.2 mph88%30.04 "Hg2 mi
9:05 PM52 °FFog.3 mph88%30.04 "Hg2 mi
8:05 PM55 °FPassing clouds.3 mph77%30.04 "Hg4 mi
7:35 PM55 °FPassing clouds.3 mph77%30.04 "Hg4 mi
7:05 PM55 °FPassing clouds.6 mph72%30.04 "Hg4 mi
6:05 PM57 °FScattered clouds.5 mph67%30.01 "Hg4 mi
Weather by CustomWeather, © 2016

See weather overviewHow to use our weather pages